Erie, PA

6:31 AM EDT on October 19, 2019 (GMT -0400)
Erie International

Weather History for KERI - August, 2019

Change the Weather History Date:

Sunday, August 25, 2019

  Actual Average Record
Temperature  
Mean Temperature 68 °F 70 °F  
Max Temperature 79 °F 78 °F 90 °F (1900)
Min Temperature 57 °F 62 °F 42 °F (1977)
Degree Days  
Heating Degree Days 0 0  
Month to date heating degree days 0 0  
Since 1 June heating degree days 38 68  
Since 1 July heating degree days 0 7  
Cooling Degree Days 3 5  
Month to date cooling degree days 198 155  
Year to date cooling degree days 663 530  
Since 1 June cooling degree days 630 491  
Growing Degree Days 18 (Base 50)    
Moisture  
Dew Point 50 °F    
Average Humidity 56    
Maximum Humidity 80    
Minimum Humidity 35    
Precipitation  
Precipitation 0.00 in 0.11 in 1.94 in (1975)
Month to date precipitation 3.41 2.81  
Year to date precipitation 25.91 25.17  
Snow  
Snow 0.00 in 0.00 in - ()
Month to date snowfall 0.0 0.0  
Since 1 June snowfall 0.0 0.0  
Since 1 July snowfall 0.0 0.0  
Snow Depth 0.00 in    
Sea Level Pressure  
Sea Level Pressure 30.22 in    
Wind  
Wind Speed 7 mph ()    
Max Wind Speed 15 mph    
Max Gust Speed 20 mph    
Visibility 10.0 miles    
Events      
T = Trace of Precipitation, MM = Missing Value Source: Averaged Metar Reports

Daily Weather History Graph

Daily Weather History Graph

Search for Another Location

Airport or City:

Astronomy

Aug. 25, 2019 Rise Set
Actual Time 6:38 AM EDT 8:06 PM EDT
Civil Twilight 6:09 AM EDT 8:35 PM EDT
Nautical Twilight 5:34 AM EDT 9:10 PM EDT
Astronomical Twilight 4:56 AM EDT 9:47 PM EDT
Moon 1:09 AM EDT (8/25) 4:29 PM EDT (8/25)
Length of Visible Light 14h 26m
Length of Day
13h 27m
Waning Crescent, 29% of the Moon is Illuminated
Aug 25
Waning Crescent
Aug 30
New
Sep 5
First Quarter
Sep 14
Full
Sep 21
Last Quarter

Hourly Weather History & Observations

Time (EDT) Temp. Dew Point Humidity Pressure Visibility Wind Dir Wind Speed Gust Speed Precip Events Conditions
12:51 AM 61.0 °F 52.0 °F 72% 30.27 in 10.0 mi SE 6.9 mph - N/A   Clear
1:51 AM 59.0 °F 52.0 °F 78% 30.26 in 10.0 mi SSE 4.6 mph - N/A   Clear
2:51 AM 59.0 °F 52.0 °F 78% 30.24 in 10.0 mi SE 5.8 mph - N/A   Clear
3:51 AM 59.0 °F 51.1 °F 75% 30.23 in 10.0 mi SSE 8.1 mph - N/A   Clear
4:51 AM 57.9 °F 51.1 °F 78% 30.24 in 10.0 mi SSE 8.1 mph - N/A   Clear
5:51 AM 57.9 °F 50.0 °F 75% 30.25 in 10.0 mi SSE 9.2 mph - N/A   Clear
6:51 AM 57.9 °F 50.0 °F 75% 30.26 in 10.0 mi SSE 8.1 mph - N/A   Clear
7:51 AM 60.1 °F 51.1 °F 72% 30.27 in 10.0 mi SSE 6.9 mph - N/A   Clear
8:51 AM 64.9 °F 51.1 °F 61% 30.27 in 10.0 mi SE 6.9 mph - N/A   Clear
9:51 AM 69.1 °F 51.1 °F 53% 30.25 in 10.0 mi SE 10.4 mph - N/A   Clear
10:51 AM 72.0 °F 48.9 °F 44% 30.26 in 10.0 mi SE 10.4 mph - N/A   Clear
11:51 AM 73.9 °F 48.0 °F 40% 30.25 in 10.0 mi SSE 10.4 mph 17.3 mph N/A   Clear
12:51 PM 75.0 °F 48.0 °F 38% 30.23 in 10.0 mi SE 11.5 mph - N/A   Clear
1:51 PM 77.0 °F 48.9 °F 37% 30.21 in 10.0 mi Variable 4.6 mph - N/A   Clear
2:05 PM 75.9 °F 48.9 °F 38% 30.21 in 10.0 mi ENE 8.1 mph - N/A   Partly Cloudy
2:51 PM 78.1 °F 50.0 °F 37% 30.20 in 10.0 mi South 10.4 mph 18.4 mph N/A   Mostly Cloudy
3:51 PM 75.9 °F 48.9 °F 38% 30.19 in 10.0 mi Variable 6.9 mph - N/A   Partly Cloudy
4:51 PM 78.1 °F 48.9 °F 36% 30.18 in 10.0 mi South 6.9 mph - N/A   Mostly Cloudy
5:51 PM 77.0 °F 50.0 °F 39% 30.17 in 10.0 mi SSE 10.4 mph - N/A   Mostly Cloudy
6:51 PM 75.0 °F 50.0 °F 41% 30.17 in 10.0 mi SE 10.4 mph - N/A   Clear
7:51 PM 71.1 °F 50.0 °F 47% 30.17 in 10.0 mi SE 5.8 mph - N/A   Clear
8:51 PM 68.0 °F 50.0 °F 52% 30.16 in 10.0 mi ESE 4.6 mph - N/A   Clear
9:51 PM 64.9 °F 51.1 °F 61% 30.16 in 10.0 mi ESE 5.8 mph - N/A   Clear
10:51 PM 64.0 °F 51.1 °F 63% 30.17 in 10.0 mi ESE 5.8 mph - N/A   Clear
11:51 PM 62.1 °F 52.0 °F 70% 30.18 in 10.0 mi SE 4.6 mph - N/A   Clear